METEOR 2-13 DEB, 43151

Orbit data source: Space-Track

METEOR 2-13 DEB, 43151 is space debris in LEO originally from a launch on Thu, 26 Dec 1985 UTC launched from the Plesetsk Missile And Space Complex (PKMTR). Debris objects in space refer to the collection of defunct objects orbiting the Earth. Examples of debris include non-operational satellites, rocket bodies, and fragments generated from explosions, collisions, or faulty payload assembly.

Loading next visibility...
Identifier
43151, 1985-119C
Orbit
LEO
Country
Flag of CISCIS
Related business
Manufacturer
Unknown
Mission
Spacecraft
Bus & Motor
Unknown
Mass
Unknown
Launch date (UTC)
1985-12-26 (40 years ago)
Launch vehicle
Unknown
Launch site
Plesetsk Missile And Space Complex (PKMTR)
Object type
Payload
Rocket body
Debris
Shape & HBR
Unknown shape, 0.1 m
Radar Cross Section
Medium (>0.1 m² and <1 m²)

Expand to show TLE details & history
Last TLE update: 4 days ago

TLE from 4 days ago
0 METEOR 2-13 DEB
1 43151U 85119C   26169.91029981  .00001821  00000-0  13364-2 0  9992
2 43151  82.5363 239.5843 0028816  52.8567 307.5225 13.95073764448189
Epoch: 2026-06-18T21:50Z
TLE epoch observation values (Epoch: 2026-06-18T21:50:49.903Z)
Latitude
-0.00001°
Longitude
4.72952°
Altitude
901.064 km
Speed
7.408 km/s
True Right ascension
15h 58m 20s
True Declination
0° 00' 00"
Sunlit
Object was in full shadow at epoch
Visualization orbit readout
Latitude
Unknown
Longitude
Unknown
Altitude
Unknown
Speed
Unknown
Apparent Right ascension
Unknown
Apparent Declination
Unknown
Sunlit
N/A
Visualization observer readout
Local Sidereal Time
21:24:33
Azimuth
Unknown
Elevation
Unknown
Doppler factor
Unknown
Orbital elements
Apogee altitude
929.037 km
Perigee altitude
887.045 km
Semi-major axis
7,286.178 km
Eccentricity
0.00288
Inclination
82.5363°
RAAN
239.5843°
Arg. of periapsis
52.8567°
True anomaly
307.26003°
Mean anomaly
307.5225°
Eccentric anomaly
307.39132°
Mean motion
3.48974 °/min
Orbital period
103.16 mins
BSTAR
0.0013364
Loading maneuver chart data...
Computing Atmospheric mass density...
Loading historical data...
Loading historical data...
Loading historical data...
Loading historical data...
Loading historical data...
Loading historical data...
Loading historical data...
Other satellites on launch #119 in the year 1985 (1985-12-26 UTC)

Documentation

Showing up to 5 results
|